When you browse on this site, cookies collect data to enhance your experience and personalize the content and advertising you see.
Visit our Privacy Policy to learn more. By continuing to use the site, you agree to this use of cookies and data.
  • In Spain
  • List of Countries
  • For 7 days
  • Water Temperature
  • Satellite Maps
  • Weather Map
  • Weather Widgets
  • user-avatar
    Login

    Hourly Weather Zandzhan

    Today, 18 January, Friday

    Time Temperature Precipitation Wind Pressure Humidity
    00:00 -4°C° 0.3 mm 2 mps 608 mmHg 89%
    01:00 -4°C° 0.5 mm 2 mps 608 mmHg 90%
    02:00 -5°C° 0.5 mm 2 mps 609 mmHg 90%
    03:00 -5°C° 0 mm 2 mps 609 mmHg 93%
    04:00 -5°C° 0.8 mm 2 mps 609 mmHg 93%
    05:00 -5°C° 0.8 mm 2 mps 610 mmHg 93%
    06:00 -3°C° 0.8 mm 1 mps 610 mmHg 94%
    07:00 -3°C° 0.5 mm 1 mps 610 mmHg 92%
    08:00 -3°C° 0.5 mm 1 mps 611 mmHg 89%
    09:00 -3°C° 0 mm 1 mps 611 mmHg 84%
    10:00 -3°C° 0.2 mm 1 mps 611 mmHg 80%
    11:00 -2°C° 0.2 mm 1 mps 611 mmHg 77%
    12:00 -2°C° 0.2 mm 1 mps 611 mmHg 73%
    13:00 -2°C° 0.2 mm 1 mps 612 mmHg 73%
    14:00 -2°C° 0.2 mm 1 mps 612 mmHg 74%
    15:00 -2°C° 0.2 mm 1 mps 612 mmHg 74%
    16:00 -3°C° 0.1 mm 1 mps 612 mmHg 78%
    17:00 -3°C° 0.1 mm 1 mps 612 mmHg 81%
    18:00 -4°C° 0.1 mm 1 mps 612 mmHg 85%
    19:00 -6°C° 0 mm 1 mps 612 mmHg 85%
    20:00 -7°C° 0 mm 1 mps 612 mmHg 86%
    21:00 -8°C° 0 mm 1 mps 611 mmHg 87%
    22:00 -8°C° 0 mm 1 mps 611 mmHg 88%
    23:00 -9°C° 0 mm 1 mps 611 mmHg 88%

    Tomorrow, 19 January, Saturday

    Time Temperature Precipitation Wind Pressure Humidity
    00:00 -9°C° 0 mm 0 mps 611 mmHg 88%
    01:00 -9°C° 0 mm 1 mps 611 mmHg 88%
    02:00 -9°C° 0 mm 1 mps 611 mmHg 88%
    03:00 -9°C° 0 mm 1 mps 611 mmHg 88%
    04:00 -9°C° 0 mm 1 mps 611 mmHg 89%
    05:00 -9°C° 0 mm 1 mps 612 mmHg 90%
    06:00 -9°C° 0 mm 1 mps 612 mmHg 91%
    07:00 -8°C° 0 mm 1 mps 612 mmHg 89%
    08:00 -7°C° 0 mm 0 mps 613 mmHg 87%
    09:00 -6°C° 0 mm 0 mps 613 mmHg 86%
    10:00 -4°C° 0 mm 1 mps 613 mmHg 80%
    11:00 -3°C° 0 mm 1 mps 613 mmHg 75%
    12:00 -2°C° 0 mm 1 mps 613 mmHg 69%
    13:00 -2°C° 0 mm 1 mps 613 mmHg 70%
    14:00 -2°C° 0 mm 1 mps 613 mmHg 70%
    15:00 -1°C° 0 mm 1 mps 613 mmHg 71%
    16:00 -3°C° 0 mm 1 mps 612 mmHg 71%
    17:00 -6°C° 0 mm 0 mps 612 mmHg 71%
    18:00 -8°C° 0 mm 0 mps 611 mmHg 72%
    19:00 -8°C° 0 mm 0 mps 611 mmHg 72%
    20:00 -8°C° 0 mm 0 mps 612 mmHg 73%
    21:00 -9°C° 0 mm 0 mps 612 mmHg 74%
    22:00 -9°C° 0 mm 0 mps 612 mmHg 75%
    23:00 -9°C° 0 mm 0 mps 612 mmHg 76%

    Day after tomorrow, 20 January, Sunday

    Time Temperature Precipitation Wind Pressure Humidity
    00:00 -9°C° 0 mm 0 mps 612 mmHg 76%
    01:00 -9°C° 0 mm 0 mps 612 mmHg 77%
    02:00 -10°C° 0 mm 0 mps 612 mmHg 77%
    03:00 -10°C° 0 mm 0 mps 612 mmHg 78%
    04:00 -10°C° 0 mm 0 mps 612 mmHg 77%
    05:00 -10°C° 0 mm 0 mps 612 mmHg 77%
    06:00 -10°C° 0 mm 1 mps 612 mmHg 77%
    07:00 -9°C° 0 mm 1 mps 613 mmHg 75%
    08:00 -8°C° 0 mm 1 mps 613 mmHg 74%
    09:00 -7°C° 0 mm 1 mps 614 mmHg 72%
    10:00 -6°C° 0 mm 1 mps 614 mmHg 68%
    11:00 -3°C° 0 mm 1 mps 614 mmHg 63%
    12:00 -2°C° 0 mm 1 mps 614 mmHg 58%
    13:00 -2°C° 0 mm 1 mps 614 mmHg 60%
    14:00 -2°C° 0 mm 1 mps 614 mmHg 61%
    15:00 -1°C° 0 mm 1 mps 614 mmHg 63%
    16:00 -3°C° 0 mm 1 mps 613 mmHg 63%
    17:00 -6°C° 0 mm 1 mps 613 mmHg 63%
    18:00 -7°C° 0 mm 1 mps 613 mmHg 63%
    19:00 -7°C° 0 mm 1 mps 613 mmHg 62%
    20:00 -8°C° 0 mm 1 mps 613 mmHg 61%
    21:00 -8°C° 0 mm 1 mps 613 mmHg 60%
    22:00 -8°C° 0 mm 1 mps 613 mmHg 58%
    23:00 -8°C° 0 mm 1 mps 613 mmHg 57%

    21 January, Monday

    Time Temperature Precipitation Wind Pressure Humidity
    00:00 -9°C° 0 mm 1 mps 613 mmHg 56%
    01:00 -9°C° 0 mm 1 mps 613 mmHg 55%
    02:00 -9°C° 0 mm 1 mps 613 mmHg 55%
    03:00 -9°C° 0 mm 1 mps 613 mmHg 54%
    04:00 -9°C° 0 mm 1 mps 613 mmHg 54%
    05:00 -9°C° 0 mm 1 mps 613 mmHg 54%
    06:00 -10°C° 0 mm 1 mps 613 mmHg 53%
    07:00 -8°C° 0 mm 1 mps 613 mmHg 56%
    08:00 -7°C° 0 mm 1 mps 613 mmHg 58%
    09:00 -6°C° 0 mm 1 mps 614 mmHg 60%
    10:00 -4°C° 0 mm 1 mps 614 mmHg 59%
    11:00 -2°C° 0 mm 1 mps 614 mmHg 57%
    12:00 -1°C° 0 mm 1 mps 614 mmHg 56%
    13:00 -1°C° 0 mm 1 mps 613 mmHg 59%
    14:00 -1°C° 0 mm 1 mps 613 mmHg 62%
    15:00 0°C° 0 mm 1 mps 612 mmHg 64%
    16:00 -1°C° 0 mm 1 mps 612 mmHg 64%
    17:00 -2°C° 0 mm 1 mps 612 mmHg 64%
    18:00 -3°C° 0 mm 1 mps 611 mmHg 64%
    19:00 -3°C° 0 mm 1 mps 611 mmHg 64%
    20:00 -3°C° 0 mm 1 mps 612 mmHg 64%
    21:00 -3°C° 0 mm 1 mps 612 mmHg 64%
    22:00 -4°C° 0 mm 1 mps 611 mmHg 64%
    23:00 -4°C° 0 mm 1 mps 611 mmHg 65%

    22 January, Tuesday

    Time Temperature Precipitation Wind Pressure Humidity
    00:00 -4°C° 0 mm 1 mps 611 mmHg 65%
    01:00 -4°C° 0 mm 1 mps 611 mmHg 68%
    02:00 -4°C° 0 mm 1 mps 610 mmHg 70%
    03:00 -6°C° 0 mm 1 mps 610 mmHg 73%
    04:00 -6°C° 0 mm 1 mps 610 mmHg 75%
    05:00 -6°C° 0 mm 1 mps 610 mmHg 77%
    06:00 -7°C° 0 mm 1 mps 610 mmHg 79%
    07:00 -6°C° 0 mm 1 mps 610 mmHg 80%
    08:00 -4°C° 0 mm 1 mps 611 mmHg 80%
    09:00 -4°C° 0 mm 1 mps 611 mmHg 80%
    10:00 -2°C° 0 mm 1 mps 611 mmHg 78%
    11:00 -3°C° 0 mm 2 mps 611 mmHg 75%
    12:00 -2°C° 0 mm 2 mps 611 mmHg 72%
    13:00 -2°C° 0 mm 2 mps 611 mmHg 72%
    14:00 +1°C° 0 mm 1 mps 611 mmHg 72%
    15:00 +1°C° 0 mm 1 mps 611 mmHg 73%
    16:00 -1°C° 0 mm 1 mps 610 mmHg 74%
    17:00 -2°C° 0 mm 1 mps 610 mmHg 75%
    18:00 -5°C° 0 mm 0 mps 610 mmHg 76%
    19:00 -5°C° 0 mm 0 mps 610 mmHg 77%
    20:00 -6°C° 0 mm 0 mps 610 mmHg 78%
    21:00 -6°C° 0 mm 0 mps 610 mmHg 79%
    22:00 -6°C° 0 mm 0 mps 610 mmHg 80%
    23:00 -6°C° 0 mm 1 mps 610 mmHg 81%

    23 January, Wednesday

    Time Temperature Precipitation Wind Pressure Humidity
    00:00 -7°C° 0 mm 1 mps 610 mmHg 81%
    01:00 -7°C° 0 mm 1 mps 610 mmHg 82%
    02:00 -7°C° 0 mm 1 mps 610 mmHg 83%
    03:00 -7°C° 0 mm 1 mps 610 mmHg 84%
    04:00 -7°C° 0 mm 1 mps 610 mmHg 85%
    05:00 -7°C° 0 mm 1 mps 610 mmHg 85%
    06:00 -8°C° 0 mm 2 mps 610 mmHg 86%
    07:00 -7°C° 0 mm 2 mps 611 mmHg 85%
    08:00 -6°C° 0 mm 2 mps 611 mmHg 84%
    09:00 -5°C° 0 mm 2 mps 612 mmHg 84%
    10:00 -4°C° 0 mm 2 mps 612 mmHg 81%
    11:00 -3°C° 0 mm 2 mps 612 mmHg 79%
    12:00 -1°C° 0 mm 3 mps 612 mmHg 76%
    13:00 -1°C° 0 mm 3 mps 612 mmHg 75%
    14:00 -1°C° 0 mm 3 mps 612 mmHg 74%
    15:00 0°C° 0 mm 3 mps 612 mmHg 72%
    16:00 -2°C° 0 mm 2 mps 611 mmHg 73%
    17:00 -3°C° 0 mm 2 mps 611 mmHg 74%
    18:00 -2°C° 0 mm 1 mps 611 mmHg 75%
    19:00 -3°C° 0 mm 1 mps 611 mmHg 76%
    20:00 -3°C° 0 mm 1 mps 611 mmHg 76%
    21:00 -4°C° 0 mm 1 mps 611 mmHg 77%
    22:00 -4°C° 0 mm 1 mps 611 mmHg 79%
    23:00 -4°C° 0 mm 1 mps 611 mmHg 80%
    Show more